Tracking 20041 objects as of 22-Nov-2019
Live streaming from Space Station
objects crossing your sky now

COSMOS 1199

Track COSMOS 1199 now!
10-day predictions
COSMOS 1199 is classified as:


NORAD ID: 11882
Int'l Code: 1980-058H
Perigee: 1,479.4 km
Apogee: 1,538.2 km
Inclination: 74.0 °
Period: 116.0 minutes
Semi major axis: 7879 km
RCS: 0.728 m2 (medium)
Launch date: July 9, 1980
Source: Commonwealth of Independent States (former USSR) (CIS)
Launch site: PLESETSK MISSILE AND SPACE COMPLEX (PKMTR)
aabbcc
Your satellite tracking list
Your tracking list is empty




NASA's NSSDC Master Catalog

Two Line Element Set (TLE):
1 11882U 80058H   19325.88543851 -.00000014 +00000-0 +14643-4 0  9991
2 11882 074.0179 219.6781 0037262 259.0722 218.5610 12.41168713783826
Source of the keplerian elements: AFSPC